星链-3948 (STARLINK-3948 )

导读

STARLINK-3948是美国星链项目卫星,由SpaceX于2022年5月13日发射升空,属于星链卫星互联网星座的组成部分。星链计划旨在构建全球卫星互联网,为全球偏远地区、海上等场景提供高速网络接入服务。该卫星入轨后,进一步扩充了星链星座的卫星规模,助力星座组网推进,提升卫星网络服务覆盖与能力。

基本信息
目录编号:
52546
目录名称:
STARLINK-3948
国际标识:
2022-051P
轨道中心:
EARTH
卫星名称:
星链-3948
卫星全名:
星链-3948 (STARLINK-3948 )
卫星状态:
在轨 (已飞行1496 天)
发射日期:
2022-05-13 UTC
国别 :
美国 (US)
星等 :
--
轨道信息
数据来源 国际轨道数据
星历时间: 2026-06-17T12:00:02+0800
9小时前
查看轨道信息
半长轴: 6899.957km
偏心率: 0.0001779
轨道倾角: 53.160°
近地点辐角 68.513°
升交点赤经 42.087°
平近点角 120.834°
近地点: 520.592km
远地点: 523.048km
周期: 95.067分钟
每日圈数: 15.147229
详细信息
固有亮度:
5
最大亮度:
2.5
卫星平台:
Starlink v1.5
覆盖范围:
全球
运营商:
太空探索技术公司
运营商所在国:
美国
制造商(研发单位):
太空探索技术公司
制造商所在国:
美国
使用方式:
暂无
卫星简介
星链(Starlink)计划是由太空探索技术公司(SpaceX)提出的一个巨型低轨卫星互联网星座项目,计划在2019年至2024年间在太空搭建由约1.2万颗卫星组成的“星链”网络,其中1584颗将部署在地球上空550千米处的近地轨道,并从2020年开始工作。该卫星仍在工作。
2D轨道图
3D轨道图
轨道高度分析图
轨道倾角分析图
轨道综合分析图
查看轨道综合分析图